Погода в Шибин-эль-Коме

Египет     30°33′25″N   31°00′32″E
темп.,
°C
ветер,
м/с
пор.,
м/с
влажн.,
%
обл.,
%
осадки,
мм/ч
давл.,
гПа
погр.,
м
13 мая, чт
чт1323:00+17ссв22754 0.0 101337
02:00+16ссв22805 0.0 101211
05:00+15с11840 0.0 101211
08:00+22ссв22450 0.0 1013527
11:00+30ссз34170 0.0 10121435
14:00+35ссз45110 0.0 10102326
17:00+32с77150 0.0 10111178
20:00+22с59350 0.0 1014215
14 мая, пт
пт1423:00+18св34570 0.0 101570
02:00+17св23720 0.0 101438
05:00+16св22770 0.0 101424
08:00+25всв34370 0.0 1015529
11:00+33ссв45160 0.0 10141580
14:00+37с66110 0.0 10122946
17:00+32с88170 0.0 10131217
20:00+23ссв510380 0.0 1015240
15 мая, сб
сб1523:00+20св35540 0.0 101596
02:00+18св23640 0.0 101437
05:00+17св22710 0.0 101327
08:00+25св33370 0.0 1014519
11:00+33с46160 0.0 10131605
14:00+37с78100 0.0 10102761
17:00+33с77130 0.0 10111361
20:00+23с48300 0.0 1012149
16 мая, вс
вс1623:00+20св34540 0.0 101266
02:00+18в34666 0.0 101069
05:00+18в34720 0.0 101057
08:00+28вюв34263 0.0 1009497
11:00+35с221288 0.0 10091425
14:00+38сз351011 0.0 10072757
17:00+37зсз441041 0.0 10052727
20:00+26с511332 0.0 1008317
17 мая, пн
пн1723:00+21ссз59620 0.0 1009275
02:00+19ссз497687 0.0 1009305
05:00+18ссз38865 0.0 1010270
08:00+24ссз44495 0.0 1011769
11:00+31ссз442340 0.0 10111483
14:00+35ссз65164 0.0 10092236
17:00+29с87280 0.0 10101203
20:00+21с59550 0.0 1013403